Location: Devore Heights
(34.2372°N, 117.4156°W)
Time: 02:32:46
(UTC+00:00)

SR - Pass Details

Date: 18 September 2024
Orbit: 578 x 855 km, 66.7° (Epoch: 02 October)

Event Time Altitude Azimuth Distance (km) Brightness Sun altitude
Rises 06:13:25 0° 323° (NW) 3,015 ? -48.3°
Enters shadow 06:14:00 - 321° (NW) 2,800 ? -48.4°
Reaches altitude 10° 06:15:48 10° 315° (NW) 2,142 - -48.6°
Maximum altitude 06:20:15 36° 249° (WSW) 1,142 - -49.1°
Drops below altitude 10° 06:25:01 10° 184° (S) 2,300 - -49.6°
Sets 06:27:40 0° 176° (S) 3,268 - -49.9°
